Location: Battery Park City
(40.7115°N, 74.0163°W)
Time: 14:17:54
(UTC+00:00)

OAO 3 Rocket - Pass Details

Date: 08 December 2019
Orbit: 629 x 683 km, 35.0° (Epoch: 18 January)

Event Time Altitude Azimuth Distance (km) Brightness Sun altitude
Rises 23:02:49 0° 248° (WSW) 2,923 8.3 -17.3°
Reaches altitude 10° 23:05:16 10° 241° (WSW) 2,023 6.9 -17.7°
Maximum altitude 23:09:39 39° 173° (S) 963 4.0 -18.5°
Enters shadow 23:11:36 27° 124° (SE) 1,253 4.3 -18.9°
